Location: Arboyeti
(42.1122°N, 44.6017°E)
Time: 16:37:43
(UTC+00:00)

Genesis I - Pass Details

Date: 19 April 2021
Orbit: 483 x 537 km, 64.5° (Epoch: 06 May)

Event Time Altitude Azimuth Distance (km) Brightness Sun altitude
Rises 18:28:36 0° 328° (NNW) 2,675 8.1 -26.1°
Reaches altitude 10° 18:30:48 10° 330° (NNW) 1,787 6.9 -26.4°
Enters shadow 18:33:35 42° 344° (NNW) 767 4.4 -26.7°
